TOMSK-TPU 120 (42910 NORAD) Tracking and Keplerian Element Data

This shows tracking and keplerian element data for the satellite.

Feedback or suggestion? Click here.




ElementValue
Catalog42910
NameTOMSK-TPU 120
Epoch Orbit5134
Epoch Day193.48898525
Epoch Year2018
RAAN237.7025
Inclination51.6336
Eccentricity0.0005902
Argument of Perigee314.7106
Mean Anonmoly45.3408
Mean Motion15.64980557
Decay Rate0.00011307
L11 42910U 98067MZ 18193.48898525 .00011307 00000-0 11826-3 0 9990
L22 42910 051.6336 237.7025 0005902 314.7106 045.3408 15.64980557051343

Live tracking and technical data element details for TOMSK-TPU 120 (NORAD 42910). TOMSK-TPU 120 can be tracked NOW for your location showing map with azimuth and elevation plus other details from your city location.

Track the satellite on the map from your city or location and see movement details for azimuth, elevation, latitude, longitude, range, height, and movement on the map or in text.







IsCatalogInMostPopularTable: catalog: 42910, numindb: 112
Update: records affected: 1



GetName: 42910 TOMSK-TPU 120

Hit Count: updated at: Wed, 18 Jul 2018 20:26:44 GMT